{"data":{"norad_id":67856,"intl_designator":"2026-034G","name":"STARLINK-36843","alt_names":[],"object_type":"PAYLOAD","status":"ACTIVE","operator":null,"country":"US","launch_date":"2026-02-20","launch_site_code":"AFETR","launch_vehicle":null,"mission":null,"orbit_class":"UNKNOWN","rcs_meters":null,"size_class":null,"mass_kg":null,"dimensions":null,"purposes":["comms"],"wikipedia_slug":null,"has_3d_model":false,"image_url":null,"decayed_at":null,"tle_current":{"epoch":"2026-09-19T22:24:41.349024Z","epoch_age_seconds":115442,"freshness":"FRESH","line1":"1 67856U 26034G   26262.93381191  .00008359  00000+0  28062-3 0  9995","line2":"2 67856  53.1606  20.7153 0001142  79.5902 280.5228 15.31723270 33793","mean_motion":15.3172327,"eccentricity":0.0001142,"inclination_deg":53.1606,"raan_deg":20.7153,"arg_perigee_deg":79.5902,"mean_anomaly_deg":280.5228,"bstar":0.00028062,"rev_number":3379,"period_min":94.01175970905,"perigee_km":469.88849561342,"apogee_km":471.45276327599,"semimajor_km":6848.8076294447,"source":"CELESTRAK","updated_at":"2026-09-20T09:00:43.674494Z"}}}